Location: Podia
(1.5569°N, 32.3469°E)
Time: 12:08:42
(UTC+00:00)

Explorer 11/Cluster Stage 4 - Visible Passes

Search period start: 26 September 2020 00:00
Search period end: 06 October 2020 00:00
Orbit: 467 x 1258 km, 28.8° (Epoch: 25 September)

Date Brightness Start Highest point End Pass type
(mag) Time Alt. Az. Time Alt. Az. Time Alt. Az.
27 Sep 9.6 03:16:49 10° N 03:20:04 13° NNE 03:23:20 10° NE visible
28 Sep 9.6 03:05:20 10° N 03:09:19 14° NNE 03:13:21 10° NE visible
29 Sep 9.5 02:53:57 10° NNW 02:58:31 16° NNE 03:03:12 10° ENE visible
29 Sep 8.2 17:33:44 10° SW 17:34:26 15° SW 17:34:26 15° SW visible
30 Sep 9.4 02:42:39 10° NNW 02:47:42 18° NNE 02:52:55 10° ENE visible
30 Sep 7.4 17:22:57 10° SW 17:24:40 26° SW 17:24:40 26° SW visible
01 Oct 9.4 02:31:26 10° NNW 02:36:50 20° NNE 02:42:33 10° ENE visible
01 Oct 6.2 17:12:13 10° SW 17:14:56 49° SW 17:14:56 49° SW visible
02 Oct 9.2 02:20:15 10° NNW 02:25:57 23° NNE 02:32:03 10° ENE visible
02 Oct 5.4 17:01:31 10° WSW 17:05:08 76° NNW 17:05:13 75° NNW visible
03 Oct 9.0 02:09:21 11° NNW 02:15:02 26° NNE 02:21:30 10° E visible
03 Oct 6.0 16:50:53 10° WSW 16:54:28 53° NNW 16:55:31 38° NNE visible
04 Oct 8.8 01:59:34 16° NNW 02:04:06 29° NNE 02:10:51 10° E visible
04 Oct 6.6 16:40:18 10° W 16:43:48 38° NNW 16:45:47 20° NNE visible
05 Oct 8.5 01:49:48 23° NNW 01:53:08 33° NNE 02:00:07 10° E visible
05 Oct 7.1 16:29:46 10° W 16:33:06 29° NNW 16:36:02 11° NNE visible
